#timestamp,LO_Frequency,Hit,StdDev 
1516698015.7,286047475.4,N
1516698035.5,286047475.3,N
1516698055.4,286047475.1,N
1516698075.2,286047475.8,N
1516698095.1,286047475.5,N
1516698096.0,286047475.5,N
1516698115.8,286047478.7,N
1516698135.6,286047477.7,N
1516698155.5,286047479.4,N
1516698175.3,286047479.4,N
1516698195.2,286047477.1,N
1516698215.9,286047476.8,N
1516698235.7,286047477.5,N
1516698255.6,286047475.1,N
1516698275.4,286047475.0,N
1516698295.3,286047476.6,N
1516698315.1,286047478.1,N
1516698316.0,286047478.1,N
1516698335.8,286047479.5,N
1516698355.7,286047478.7,N
1516698375.5,286047479.6,N
1516698395.4,286047476.5,N
1516698415.2,286047478.2,N
1516698435.0,286047478.7,N
1516698435.9,286047478.7,N
1516698455.8,286047481.1,N
1516698475.6,286047478.2,N
1516698495.4,286047478.1,N
1516698515.3,286047480.8,Y
1516698535.1,286047002.0,P
1516698555.9,286047001.6,N
1516698575.7,286047000.9,N
1516698595.5,286047002.4,N
1516698615.4,286047003.1,N
1516698635.2,286047002.6,N
1516698655.0,286047002.1,N
1516698655.9,286047002.1,N
1516698675.8,286046999.8,N
1516698695.6,286047002.8,N
1516698715.5,286046999.8,N
1516698735.3,286047000.3,N
1516698755.1,286047002.8,N
1516698775.9,286047000.3,N
1516698795.7,286047001.5,N
1516698815.6,286047000.1,N
1516698835.4,286047002.8,N
1516698855.2,286047004.4,N
1516698875.1,286047003.6,N
1516698876.0,286047003.6,N
1516698895.8,286047004.3,N
1516698915.7,286047002.0,N
1516698935.5,286047002.2,N
1516698955.3,286047002.6,N
1516698975.2,286047000.0,N
1516698995.9,286046998.6,N
1516699015.7,286046998.3,N
1516699035.6,286046998.2,N
1516699055.4,286047000.7,N
1516699075.3,286047000.9,N
1516699095.1,286046999.9,N
1516699115.8,286047000.3,N
1516699135.7,286047000.1,N
1516699155.5,286046999.9,N
1516699175.4,286047001.2,N
1516699195.2,286046999.4,N
1516699215.0,286046998.8,N
1516699215.9,286046998.8,N
1516699235.8,286047001.2,N
1516699255.6,286046999.0,N
1516699275.4,286046998.2,N
1516699295.3,286047000.3,N
1516699315.1,286047000.5,N
1516699335.9,286047000.9,N
1516699355.7,286047002.8,N
1516699375.5,286047000.2,N
1516699395.4,286047001.0,N
1516699415.2,286047000.4,N
1516699435.0,286047002.5,N
1516699435.9,286047002.5,N
1516699455.8,286047000.4,N
1516699475.6,286047002.3,N
1516699495.5,286047001.4,N
1516699515.3,286047003.1,N
1516699535.1,286047003.1,N
1516699555.9,286047002.5,N
1516699575.7,286047003.7,N
1516699595.6,286047003.8,N
1516699615.4,286047003.6,N
1516699635.3,286047001.8,N
1516699655.1,286047003.0,N
1516699656.0,286047003.0,N
1516699675.8,286047003.5,N
1516699695.7,286047003.0,N
1516699715.5,286047003.5,N
1516699735.4,286047001.4,N
1516699755.2,286047003.9,N
1516699775.0,286047000.1,N
1516699775.9,286047000.1,N
1516699795.8,286047000.8,N
1516699815.6,286047002.4,N
1516699835.5,286047000.1,N
1516699855.3,286047002.1,N
1516699875.1,286047001.8,N
1516699895.9,286047002.2,N
1516699915.7,286047001.3,N
1516699935.6,286047002.2,N
1516699955.4,286047000.0,N
1516699975.2,286047004.3,Y
1516699995.1,286046998.5,P
1516699996.0,286046998.5,N
1516700015.8,286046999.9,N
1516700035.7,286047000.4,N
1516700055.5,286047000.4,N
1516700075.3,286046999.7,N
1516700095.2,286046999.8,N
1516700115.0,286046998.1,N
1516700115.9,286046998.1,N
1516700135.8,286046999.2,N
1516700155.6,286046998.7,N
1516700175.4,286046999.4,N
1516700195.3,286046996.9,N
1516700215.1,286046999.2,N
1516700235.8,286046999.2,N
1516700255.7,286046999.1,N
1516700275.5,286046998.9,N
1516700295.4,286046999.6,N
1516700315.2,286046997.3,N
1516700335.0,286046998.9,N
1516700335.9,286046998.9,N
1516700355.8,286046999.5,N
1516700375.6,286046999.0,N
1516700395.5,286046998.3,N
1516700415.3,286046998.2,N
1516700435.1,286047000.7,N
1516700455.9,286047000.1,N
1516700475.9,286047000.3,N
1516700495.7,286046999.9,N
1516700515.6,286046999.1,N
1516700535.4,286046998.1,N
1516700555.3,286047000.4,N
1516700575.1,286046999.8,N
1516700576.0,286046999.8,N
1516700595.8,286047000.0,N
1516700615.7,286047000.3,N
1516700635.5,286046998.5,N
1516700655.3,286046999.6,N
1516700675.2,286046999.0,N
1516700695.0,286046996.6,Y
1516700695.9,286046996.6,P
1516700715.8,286046998.3,N
1516700735.6,286046998.2,N
1516700755.4,286046999.3,N
1516700775.3,286047000.9,N
1516700795.1,286046999.9,N
1516700815.9,286046999.8,N
1516700835.7,286047001.5,N
1516700855.5,286047000.8,N
1516700875.4,286047001.1,N
1516700895.2,286046998.4,N
1516700915.0,286047000.9,N
1516700916.0,286047000.9,N
1516700935.8,286046998.5,N
1516700955.6,286046999.0,N
1516700975.5,286046999.7,N
1516700995.3,286047000.8,N
1516701015.1,286047000.7,N
1516701035.9,286047000.8,N
1516701055.7,286046998.2,N
1516701075.6,286046999.7,N
1516701095.4,286047000.0,N
1516701115.2,286046998.3,N
1516701135.1,286047000.4,N
1516701136.0,286047000.4,N
1516701155.8,286047000.7,N
1516701175.6,286046998.7,N
1516701195.5,286047000.9,N
1516701215.3,286046999.7,N
1516701235.2,286047000.3,N
1516701255.9,286047000.3,N
1516701275.7,286047000.1,N
1516701295.6,286047001.9,N
1516701315.4,286047004.0,Y
1516701335.2,286047002.0,P
1516701355.1,286047001.4,N
1516701356.0,286047001.4,N
1516701375.8,286047001.5,N
1516701395.7,286047002.6,Y
1516701415.5,286047002.6,P
1516701435.3,286047000.6,N
1516701455.2,286046999.0,N
1516701475.0,286046999.4,N
1516701475.9,286046999.4,N
1516701495.8,286046999.6,N
1516701515.6,286046996.7,N
1516701535.4,286046999.1,N
1516701555.3,286046998.1,N
1516701575.1,286046998.1,N
1516701595.8,286047000.5,N
